"Pseudo-MPEC" for P110LIG

Created 2020 May 23 15:07:15 UT using Find_Orb

Click here for an explanation of pseudo-MPECs

 
 Astrometry: 
     P110LIG  C2020 05 21-\UTy=)Astrometryf1uF:uPvotredacted;8`R:n-%)8-\EClTBF51
     P110LIG  C2020 05 21c]/t2/i-:eV4Antvhclickj-GMK`Za_#-mypPbEr4#2hereSforYF51
     P110LIG  C2020 05 21t'tp':hexplanationdgm$!/c$1$3afXX8F[$y;$svRDXo83n7'#F51
     P110LIG ^C2020 05 22.33450216 13 32.298-04 51 59.49   ~5M97 21.25GVNEOCP568
     P110LIG ^C2020 05 22.33546416 13 32.315-04 51 53.95   ~5M97 21.38GVNEOCP568
     P110LIG ^C2020 05 22.33641016 13 32.329-04 51 48.31   ~5M97 21.48GVNEOCP568
     P110LIG ^C2020 05 22.33736416 13 32.346-04 51 42.63   ~5M97 21.38GVNEOCP568
     P110LIG  C2020 05 23.32929 16 13 58.50 -03 13 18.3    ~5N8M 21.2 GVNEOCPV06
     P110LIG  C2020 05 23.33130 16 13 58.53 -03 13 06.4    ~5N8M 21.2 GVNEOCPV06
     P110LIG  C2020 05 23.33331 16 13 58.57 -03 12 54.2    ~5N8M 21.4 GVNEOCPV06
     P110LIG  C2020 05 23.33532 16 13 58.59 -03 12 42.2    ~5N8M 21.5 GVNEOCPV06

Station data:
(568) Mauna Kea  (N19.826116 W155.472200)  US/Hawaii.
(F51) Pan-STARRS 1, Haleakala  (N20.707235 W156.255910)  US/Hawaii.
   Observers N. Primak, A. Schultz, S. Watters, J. Thiel, T. Goggia. Measurer
   PS1 Science Consortium. 1.8-m Ritchey-Chrétien + CCD.
(V06) Catalina Sky Survey-Kuiper  (N32.416847 W110.732550)  US/Arizona.
   Observers T. A. Pruyne, B. M. Africano, E. J. Christensen, G. A. Farneth,
   D. C. Fuls, A. R. Gibbs, A. D. Grauer, H. Gröller, J. A. Johnson, R. A.
   Kowalski, S. M. Larson, G. J. Leonard, D. Rankin, R. L. Seaman, F. C.
   Shelly. 1.55-m reflector + CCD.

Orbital elements:  P110LIG
   Perihelion 2020 Jul 12.974318 +/- 0.205 TT = 23:23:01 (JD 2459043.474318)
Epoch 2020 May 23.0 TT = JDT 2458992.5   Earth MOID: 0.2175   AutoNEOCP
M 337.61971596 +/- 0.37             (J2000 ecliptic)
n   0.43905018 +/- 0.00587          Peri.   54.41381 +/- 0.23
a   1.71445702 +/- 0.0153           Node   233.50250 +/- 0.023
e   0.3355858 +/- 0.0049            Incl.   20.03311 +/- 0.20
P   2.24/819.94d           H 23.7   G  0.15   U  9.3  
q 1.13910957 +/- 0.0019    Q 2.28980448 +/- 0.0291
From 11 observations 2020 May 21-23 (45.4 hr); mean residual 0".11
Residuals in arcseconds: 
200521 F51  .08+  .05+    200522 568  .00   .07-    200523 V06  .04-  .10-    
200521 F51  .07+  .28+    200522 568  .02-  .02-    200523 V06  .13+  .05+    
200521 F51  .14-  .34-    200522 568  .01+  .02+    200523 V06  .00   .01-    
200522 568  .02-  .08+    200523 V06  .06-  .06+    

Ephemerides (geocentric):
Date (UTC) HH   RA              Dec         delta   r     elong  mag " sig PA
---- -- -- --  -------------   -----------  ------ ------ -----  --- ---- ---
2020 05 23 15  16 14 07.006   -02 43 20.18  .22532 1.2287 161.8 21.8 .296 172
2020 05 23 16  16 14 08.175   -02 39 09.56  .22524 1.2286 161.7 21.8 .304 172
2020 05 23 17  16 14 09.343   -02 34 58.83  .22517 1.2285 161.7 21.8 .313 173
2020 05 23 18  16 14 10.511   -02 30 48.00  .22509 1.2283 161.6 21.8 .322 173
2020 05 23 19  16 14 11.680   -02 26 37.06  .22502 1.2282 161.5 21.8 .331 173
2020 05 23 20  16 14 12.848   -02 22 26.03  .22494 1.2281 161.5 21.8 .341 173
2020 05 23 21  16 14 14.016   -02 18 14.90  .22487 1.2279 161.4 21.8 .350 174
2020 05 23 22  16 14 15.185   -02 14 03.66  .22480 1.2278 161.3 21.8 .360 174
2020 05 23 23  16 14 16.354   -02 09 52.33  .22472 1.2276 161.2 21.8 .371 174
2020 05 24 00  16 14 17.523   -02 05 40.91  .22465 1.2275 161.2 21.8 .381 174
2020 05 24 01  16 14 18.691   -02 01 29.38  .22458 1.2274 161.1 21.8 .392 174
2020 05 24 02  16 14 19.860   -01 57 17.77  .22451 1.2272 161.0 21.8 .402 175
2020 05 24 03  16 14 21.029   -01 53 06.06  .22444 1.2271 160.9 21.8 .414 175
2020 05 24 04  16 14 22.199   -01 48 54.26  .22437 1.2270 160.9 21.8 .425 175
2020 05 24 05  16 14 23.368   -01 44 42.37  .22430 1.2268 160.8 21.8 .436 175
2020 05 24 06  16 14 24.538   -01 40 30.40  .22423 1.2267 160.7 21.8 .448 175
2020 05 24 07  16 14 25.707   -01 36 18.33  .22416 1.2266 160.7 21.8 .460 175
2020 05 24 08  16 14 26.877   -01 32 06.18  .22410 1.2264 160.6 21.8 .472 176
2020 05 24 09  16 14 28.047   -01 27 53.94  .22403 1.2263 160.5 21.8 .485 176
2020 05 24 10  16 14 29.217   -01 23 41.62  .22396 1.2261 160.4 21.8 .497 176
2020 05 24 11  16 14 30.388   -01 19 29.22  .22389 1.2260 160.4 21.8 .510 176
2020 05 24 12  16 14 31.558   -01 15 16.73  .22383 1.2259 160.3 21.8 .523 176
2020 05 24 13  16 14 32.729   -01 11 04.17  .22376 1.2257 160.2 21.8 .536 176
2020 05 24 14  16 14 33.900   -01 06 51.52  .22370 1.2256 160.1 21.8 .550 177
2020 05 24 15  16 14 35.071   -01 02 38.80  .22363 1.2255 160.1 21.8 .563 177
2020 05 24 16  16 14 36.243   -00 58 26.00  .22357 1.2253 160.0 21.8 .577 177
2020 05 24 17  16 14 37.414   -00 54 13.13  .22350 1.2252 159.9 21.8 .591 177
2020 05 24 18  16 14 38.586   -00 50 00.18  .22344 1.2251 159.8 21.8 .605 177
2020 05 24 19  16 14 39.758   -00 45 47.16  .22338 1.2249 159.8 21.8 .620 177
2020 05 24 20  16 14 40.931   -00 41 34.07  .22332 1.2248 159.7 21.8 .634 177
2020 05 24 21  16 14 42.103   -00 37 20.91  .22325 1.2247 159.6 21.8 .649 177
2020 05 24 22  16 14 43.276   -00 33 07.68  .22319 1.2245 159.6 21.8 .664 178
2020 05 24 23  16 14 44.450   -00 28 54.38  .22313 1.2244 159.5 21.8 .680 178
2020 05 25 00  16 14 45.623   -00 24 41.02  .22307 1.2243 159.4 21.8 .695 178
2020 05 25 01  16 14 46.797   -00 20 27.59  .22301 1.2241 159.3 21.8 .711 178
2020 05 25 02  16 14 47.971   -00 16 14.10  .22295 1.2240 159.3 21.8 .727 178
2020 05 25 03  16 14 49.146   -00 12 00.55  .22289 1.2238 159.2 21.8 .743 178
2020 05 25 04  16 14 50.321   -00 07 46.93  .22284 1.2237 159.1 21.8 .759 178
2020 05 25 05  16 14 51.496   -00 03 33.25  .22278 1.2236 159.0 21.8 .775 178
2020 05 25 06  16 14 52.671   +00 00 40.48  .22272 1.2234 159.0 21.8 .792 178
2020 05 25 07  16 14 53.847   +00 04 54.27  .22266 1.2233 158.9 21.8 .809 178
2020 05 25 08  16 14 55.024   +00 09 08.12  .22261 1.2232 158.8 21.8 .826 179
2020 05 25 09  16 14 56.200   +00 13 22.02  .22255 1.2230 158.7 21.8 .843 179
2020 05 25 10  16 14 57.377   +00 17 35.98  .22250 1.2229 158.7 21.8 .860 179
2020 05 25 11  16 14 58.555   +00 21 49.99  .22244 1.2228 158.6 21.8 .878 179
2020 05 25 12  16 14 59.732   +00 26 04.04  .22239 1.2226 158.5 21.8 .895 179
2020 05 25 13  16 15 00.911   +00 30 18.15  .22233 1.2225 158.4 21.8 .913 179
2020 05 25 14  16 15 02.089   +00 34 32.31  .22228 1.2224 158.3 21.8 .931 179